INGA4: Red River, Index, AR

                                SHEF ID:       INGA4     Red River at Index, AR
STATION TYPE: Stream Gauge
Regulating: Stage = 19.80, Flow = 104273

PRECIP STAGE RIV-FLOW WTR-TEMP BAT-LOAD
in ft cfs F volt
Ccp-Rev Ccp-Rev Ccp-Rev Ccp-Rev Ccp-Rev
(America/Chicago)
04/27 00:00 0.00 2.58 8563 74.14 12.69
04/27 01:00 0.00 2.56 8490 74.05 12.67
04/27 02:00 0.00 2.54 8417 73.96 12.65
04/27 03:00 0.00 2.52 8345 73.83 12.64
04/27 04:00 0.00 2.49 8236 73.74 12.63
04/27 05:00 0.00 2.47 8164 73.65 12.61
04/27 06:00 0.00 2.44 8056 73.63 12.60
04/27 07:00 0.00 2.42 7984 73.56 12.59
04/27 08:00 0.00 2.39 7876 73.54 12.60
04/27 09:00 0.00 2.37 7805 73.54 12.80
04/27 10:00 0.00 2.34 7698 73.56 12.92
04/27 11:00 0.00 2.32 7627 73.67 13.42
04/27 12:00 0.00 2.29 7521 73.98 13.57
04/27 13:00 0.00 2.27 7451 74.32 13.39
04/27 14:00 0.00 2.24 7345 74.62 13.43
04/27 15:00 0.00 2.22 7275 75.02 13.24
04/27 16:00 0.00 2.19 7170 75.45 13.29
04/27 17:00 0.00 2.17 7101 75.88 13.17
04/27 18:00 0.00 2.15 7031 76.23 13.15
04/27 19:00 0.00 2.13 6962 76.46 13.09
04/27 20:00 0.00 2.11 6893 76.57 13.05
04/27 21:00 0.00 2.09 6824 76.60 12.78
04/27 22:00 0.00 2.07 6756 76.57 12.73
04/27 23:00 0.00 2.06 6721 76.51 12.71
Data processed at Tue 28Apr2026 04:11 GMT

NOTICE: If you are parsing this page

Please convert to using our Data API. Starting early 2026 we will be migrating to: https://water.usace.army.mil with modern pages rendered in JavaScript. When this migration completes you will no longer be able to scrape this page! CWMSDataAPI (CDA)

Timeseries IDs (TSIDs)

TSIDs used from left to right in the data table
INDX.Precip-Inc.Total.1Hour.1Hour.Ccp-Rev
INDX.Stage.Inst.1Hour.0.Ccp-Rev
INDX.Flow.Inst.1Hour.0.Ccp-Rev
INDX.Temp-Water.Inst.1Hour.0.Ccp-Rev
INDX.Volt-Battery Load.Inst.1Hour.0.Ccp-Rev

                            

All information presented herein is the property of the government of the United States of America and may be revised or deleted at any time without prior notice. Dissemination of this information without the expressed written consent of the Public Affairs Office, Tulsa District U.S. Army Corps of Engineers is strictly prohibited. These data are gathered electronically and, as presented, have NOT undergone any form of quality control. These data are NOT guaranteed to be valid or correct.